World > North America > United States > Ohio > Chambersburg  

Chambersburg, OH Hourly Weather Updates

Feedback E-mail the Weather

Quick Clicks

Chambersburg, OH Weather Maps

°F °C°F °C
Chambersburg Weather Map
UTC Time: 6/14/2024, 20:01
Your Time:

Chambersburg, OH Regional Weather

Expires:202406142100;;017652
ASUS41 KCLE 142000
RWRCLE
OHIO REGIONAL WEATHER ROUNDUP
NATIONAL WEATHER SERVICE WILMINGTON, OH
400 PM EDT FRI JUN 14 2024

NOTE: "FAIR" INDICATES FEW OR NO CLOUDS BELOW 12,000 FEET WITH NO
SIGNIFICANT WEATHER AND/OR OBSTRUCTIONS TO VISIBILITY.


OHZ009>014-019>023-028>033-038-089-142100-
   NORTHEAST OHIO
  
CITY           SKY/WX    TMP DP  RH WIND       PRES   REMARKS
CLE-HOPKINS    FAIR      79  51  37 N16       29.95S                  
CLE-LAKEFRONT  FAIR      78  59  51 N9        29.95F                  
CUY CO. ARPT   MOSUNNY   79  54  41 N13G21    29.96F                  
LORAIN-ELYRIA  FAIR      80  49  33 N14       29.97S                  
ASHTABULA      FAIR      77  50  38 NW10      29.96S                  
AKRON-CANTON   PTSUNNY   84  57  39 NE8       29.93S                  
WOOSTER        NOT AVBL                                               
MANSFIELD      PTSUNNY   82  58  43 N14G21    29.95S                  
YOUNGSTOWN     FAIR      82  55  39 N12       29.93F                  
$$
 

SKY/WX - Weather  TMP - Temperature  DP - Dew Point  RH - Humidity
WIND - Wind Direction/Speed PRES - Barometric Pressure VSB - Visibility
WCI - Wind Chill Index E13G22 Wind - East Wind 13 mph/Gusts of 22 mph

Trending Headlines

Trending Entertainment Headlines

Chambersburg Radar Loop

Use the map search tool if you want to place a location marker on the radar map...

Chambersburg Quick Facts

National Two Day Weather Forecast


E-mail the Chambersburg Weather Forecast

Voice your opinion or tell us about page issues...